Time,TemperatureF,DewpointF,PressureIn,WindDirection,WindDirectionDegrees,WindSpeedMPH,WindSpeedGustMPH,Humidity,HourlyPrecipIn,Conditions,Clouds,dailyrainin,SoftwareType,DateUTC
2013-12-19 00:05:00,6.8,5.0,29.41,ESE,102,3.0,5.0,90,0.00,,,0.00,weatherlink.com 1.10,2013-12-19 09:05:00,
2013-12-19 00:20:00,7.1,5.0,29.39,East,85,0.0,5.0,90,0.00,,,0.00,weatherlink.com 1.10,2013-12-19 09:20:00,
2013-12-19 00:35:00,7.5,5.0,29.38,East,94,2.0,5.0,90,0.00,,,0.00,weatherlink.com 1.10,2013-12-19 09:35:00,
2013-12-19 00:50:00,8.1,6.0,29.37,ENE,71,0.0,3.0,90,0.00,,,0.00,weatherlink.com 1.10,2013-12-19 09:50:00,
2013-12-19 01:05:00,8.5,6.0,29.37,ENE,57,1.0,4.0,90,0.00,,,0.00,weatherlink.com 1.10,2013-12-19 10:05:00,
2013-12-19 01:20:00,8.7,6.0,29.37,ESE,104,2.0,3.0,90,0.00,,,0.00,weatherlink.com 1.10,2013-12-19 10:20:00,
2013-12-19 01:35:00,8.9,7.0,29.37,East,87,2.0,3.0,90,0.00,,,0.00,weatherlink.com 1.10,2013-12-19 10:35:00,
2013-12-19 01:50:00,9.0,7.0,29.37,East,79,2.0,3.0,90,0.00,,,0.00,weatherlink.com 1.10,2013-12-19 10:50:00,
2013-12-19 02:06:00,9.2,7.0,29.37,East,82,2.0,3.0,91,0.00,,,0.00,weatherlink.com 1.10,2013-12-19 11:06:00,
2013-12-19 02:21:00,9.4,7.0,29.36,NE,51,2.0,4.0,91,0.00,,,0.00,weatherlink.com 1.10,2013-12-19 11:21:00,
2013-12-19 02:36:00,9.6,8.0,29.36,ESE,110,2.0,5.0,91,0.00,,,0.00,weatherlink.com 1.10,2013-12-19 11:36:00,
2013-12-19 02:51:00,10.0,8.0,29.35,East,93,2.0,4.0,91,0.00,,,0.00,weatherlink.com 1.10,2013-12-19 11:51:00,
2013-12-19 03:06:00,10.4,8.0,29.35,ENE,69,3.0,6.0,91,0.00,,,0.00,weatherlink.com 1.10,2013-12-19 12:06:00,
2013-12-19 03:21:00,10.7,9.0,29.35,East,79,0.0,6.0,91,0.00,,,0.00,weatherlink.com 1.10,2013-12-19 12:21:00,
2013-12-19 03:36:00,10.8,9.0,29.34,NE,56,2.0,5.0,91,0.00,,,0.00,weatherlink.com 1.10,2013-12-19 12:36:00,
2013-12-19 03:51:00,10.9,9.0,29.35,NE,56,2.0,5.0,91,0.00,,,0.00,weatherlink.com 1.10,2013-12-19 12:51:00,
2013-12-19 04:06:00,11.0,9.0,29.35,ESE,106,1.0,5.0,91,0.00,,,0.00,weatherlink.com 1.10,2013-12-19 13:06:00,
2013-12-19 04:21:00,11.2,9.0,29.34,East,82,4.0,5.0,91,0.00,,,0.00,weatherlink.com 1.10,2013-12-19 13:21:00,
2013-12-19 04:36:00,11.3,9.0,29.35,NE,56,1.0,5.0,91,0.00,,,0.00,weatherlink.com 1.10,2013-12-19 13:36:00,
2013-12-19 04:51:00,11.7,10.0,29.34,ENE,77,1.0,7.0,91,0.00,,,0.00,weatherlink.com 1.10,2013-12-19 13:51:00,
2013-12-19 05:06:00,11.8,10.0,29.32,ENE,61,2.0,7.0,91,0.00,,,0.00,weatherlink.com 1.10,2013-12-19 14:06:00,
2013-12-19 05:21:00,11.8,10.0,29.33,East,96,5.0,7.0,91,0.00,,,0.00,weatherlink.com 1.10,2013-12-19 14:21:00,
2013-12-19 05:36:00,12.0,10.0,29.33,ENE,75,1.0,6.0,91,0.00,,,0.00,weatherlink.com 1.10,2013-12-19 14:36:00,
2013-12-19 05:51:00,12.1,10.0,29.34,ENE,67,3.0,6.0,91,0.00,,,0.00,weatherlink.com 1.10,2013-12-19 14:51:00,
2013-12-19 06:06:00,12.2,10.0,29.34,SE,125,2.0,5.0,91,0.00,,,0.00,weatherlink.com 1.10,2013-12-19 15:06:00,
2013-12-19 06:21:00,12.3,10.0,29.34,NE,37,2.0,4.0,91,0.00,,,0.00,weatherlink.com 1.10,2013-12-19 15:21:00,
2013-12-19 06:36:00,12.3,10.0,29.34,SE,134,0.0,2.0,92,0.00,,,0.00,weatherlink.com 1.10,2013-12-19 15:36:00,
2013-12-19 06:51:00,12.4,10.0,29.35,SE,124,0.0,2.0,91,0.00,,,0.00,weatherlink.com 1.10,2013-12-19 15:51:00,
2013-12-19 07:06:00,12.5,11.0,29.35,ESE,106,0.0,3.0,92,0.00,,,0.00,weatherlink.com 1.10,2013-12-19 16:06:00,
2013-12-19 07:21:00,12.7,11.0,29.34,East,99,2.0,4.0,91,0.00,,,0.00,weatherlink.com 1.10,2013-12-19 16:21:00,
2013-12-19 07:36:00,12.8,11.0,29.34,ESE,110,2.0,5.0,92,0.00,,,0.00,weatherlink.com 1.10,2013-12-19 16:36:00,
2013-12-19 07:51:00,13.0,11.0,29.34,East,81,3.0,4.0,92,0.00,,,0.00,weatherlink.com 1.10,2013-12-19 16:51:00,
2013-12-19 08:06:00,13.1,11.0,29.34,East,92,0.0,7.0,92,0.00,,,0.00,weatherlink.com 1.10,2013-12-19 17:06:00,
2013-12-19 08:21:00,13.0,11.0,29.34,East,87,2.0,4.0,92,0.00,,,0.00,weatherlink.com 1.10,2013-12-19 17:21:00,
2013-12-19 08:36:00,12.8,11.0,29.33,East,94,1.0,5.0,92,0.00,,,0.00,weatherlink.com 1.10,2013-12-19 17:36:00,
2013-12-19 08:51:00,12.7,11.0,29.33,East,87,1.0,4.0,92,0.00,,,0.00,weatherlink.com 1.10,2013-12-19 17:51:00,
2013-12-19 09:06:00,12.5,10.0,29.32,East,85,1.0,3.0,91,0.00,,,0.00,weatherlink.com 1.10,2013-12-19 18:06:00,
2013-12-19 09:21:00,12.3,10.0,29.32,East,83,1.0,3.0,91,0.00,,,0.00,weatherlink.com 1.10,2013-12-19 18:21:00,
2013-12-19 09:36:00,12.1,10.0,29.31,East,82,1.0,4.0,91,0.00,,,0.00,weatherlink.com 1.10,2013-12-19 18:36:00,
2013-12-19 09:51:00,12.0,10.0,29.32,East,92,1.0,4.0,91,0.00,,,0.00,weatherlink.com 1.10,2013-12-19 18:51:00,
2013-12-19 10:06:00,11.8,10.0,29.32,East,81,0.0,1.0,91,0.00,,,0.00,weatherlink.com 1.10,2013-12-19 19:06:00,
2013-12-19 10:21:00,11.7,10.0,29.32,East,92,2.0,2.0,91,0.00,,,0.00,weatherlink.com 1.10,2013-12-19 19:21:00,
2013-12-19 10:36:00,11.4,9.0,29.32,East,100,0.0,2.0,91,0.00,,,0.00,weatherlink.com 1.10,2013-12-19 19:36:00,
2013-12-19 10:51:00,11.3,9.0,29.32,East,85,0.0,2.0,91,0.00,,,0.00,weatherlink.com 1.10,2013-12-19 19:51:00,
2013-12-19 11:06:00,11.3,9.0,29.31,East,79,0.0,3.0,91,0.00,,,0.00,weatherlink.com 1.10,2013-12-19 20:06:00,
2013-12-19 11:21:00,11.3,9.0,29.32,ENE,76,0.0,3.0,91,0.00,,,0.00,weatherlink.com 1.10,2013-12-19 20:21:00,
2013-12-19 11:36:00,11.8,10.0,29.33,East,89,0.0,3.0,92,0.00,,,0.00,weatherlink.com 1.10,2013-12-19 20:36:00,
2013-12-19 11:51:00,11.7,10.0,29.33,ESE,121,0.0,3.0,91,0.00,,,0.00,weatherlink.com 1.10,2013-12-19 20:51:00,
2013-12-19 12:06:00,11.2,9.0,29.32,ESE,115,2.0,3.0,91,0.00,,,0.00,weatherlink.com 1.10,2013-12-19 21:06:00,
2013-12-19 12:21:00,11.6,10.0,29.33,East,88,1.0,2.0,91,0.00,,,0.00,weatherlink.com 1.10,2013-12-19 21:21:00,
2013-12-19 12:36:00,12.0,10.0,29.33,ESE,114,0.0,3.0,91,0.00,,,0.00,weatherlink.com 1.10,2013-12-19 21:36:00,
2013-12-19 12:51:00,12.6,11.0,29.34,ESE,114,0.0,1.0,91,0.00,,,0.00,weatherlink.com 1.10,2013-12-19 21:51:00,
2013-12-19 13:06:00,13.5,12.0,29.34,SW,216,0.0,2.0,92,0.00,,,0.00,weatherlink.com 1.10,2013-12-19 22:06:00,
2013-12-19 13:21:00,14.0,12.0,29.34,SSW,212,0.0,1.0,92,0.00,,,0.00,weatherlink.com 1.10,2013-12-19 22:21:00,
2013-12-19 13:36:00,13.8,12.0,29.34,SSE,155,0.0,2.0,91,0.00,,,0.00,weatherlink.com 1.10,2013-12-19 22:36:00,
2013-12-19 13:52:00,13.5,11.0,29.33,ESE,117,0.0,2.0,91,0.00,,,0.00,weatherlink.com 1.10,2013-12-19 22:52:00,
2013-12-19 14:07:00,13.6,12.0,29.32,ESE,104,0.0,3.0,91,0.00,,,0.00,weatherlink.com 1.10,2013-12-19 23:07:00,
2013-12-19 14:22:00,13.3,11.0,29.31,ENE,69,0.0,3.0,91,0.00,,,0.00,weatherlink.com 1.10,2013-12-19 23:22:00,
2013-12-19 14:37:00,13.5,12.0,29.31,East,83,0.0,3.0,92,0.00,,,0.00,weatherlink.com 1.10,2013-12-19 23:37:00,
2013-12-19 14:52:00,13.5,12.0,29.31,East,94,1.0,2.0,92,0.00,,,0.00,weatherlink.com 1.10,2013-12-19 23:52:00,
2013-12-19 15:07:00,13.3,11.0,29.31,SE,124,1.0,3.0,92,0.00,,,0.00,weatherlink.com 1.10,2013-12-20 00:07:00,
2013-12-19 15:22:00,13.0,11.0,29.30,ENE,70,2.0,3.0,91,0.00,,,0.00,weatherlink.com 1.10,2013-12-20 00:22:00,
2013-12-19 15:37:00,12.7,11.0,29.30,East,96,0.0,4.0,92,0.00,,,0.00,weatherlink.com 1.10,2013-12-20 00:37:00,
2013-12-19 15:52:00,13.0,11.0,29.30,NNE,13,0.0,1.0,92,0.00,,,0.00,weatherlink.com 1.10,2013-12-20 00:52:00,
2013-12-19 16:07:00,12.9,11.0,29.30,North,9,0.0,0.0,92,0.00,,,0.00,weatherlink.com 1.10,2013-12-20 01:07:00,
2013-12-19 16:23:00,12.6,11.0,29.30,East,84,0.0,1.0,91,0.00,,,0.00,weatherlink.com 1.10,2013-12-20 01:23:00,
2013-12-19 16:37:00,12.4,10.0,29.29,ESE,109,1.0,3.0,91,0.00,,,0.00,weatherlink.com 1.10,2013-12-20 01:37:00,
2013-12-19 16:52:00,12.3,10.0,29.28,East,89,1.0,3.0,91,0.00,,,0.00,weatherlink.com 1.10,2013-12-20 01:52:00,
2013-12-19 17:07:00,12.5,11.0,29.29,ESE,111,0.0,1.0,92,0.00,,,0.00,weatherlink.com 1.10,2013-12-20 02:07:00,
2013-12-19 17:22:00,12.7,11.0,29.28,ESE,112,0.0,1.0,92,0.00,,,0.00,weatherlink.com 1.10,2013-12-20 02:22:00,
2013-12-19 17:37:00,12.7,11.0,29.28,ESE,112,2.0,2.0,92,0.00,,,0.00,weatherlink.com 1.10,2013-12-20 02:37:00,
2013-12-19 17:52:00,12.7,11.0,29.28,East,96,0.0,1.0,92,0.00,,,0.00,weatherlink.com 1.10,2013-12-20 02:52:00,
2013-12-19 18:07:00,13.0,11.0,29.28,East,97,0.0,1.0,92,0.00,,,0.00,weatherlink.com 1.10,2013-12-20 03:07:00,
2013-12-19 18:22:00,12.6,11.0,29.27,ESE,102,2.0,3.0,91,0.00,,,0.00,weatherlink.com 1.10,2013-12-20 03:22:00,
2013-12-19 18:37:00,12.8,11.0,29.26,East,82,0.0,3.0,92,0.00,,,0.00,weatherlink.com 1.10,2013-12-20 03:37:00,
2013-12-19 18:52:00,12.8,11.0,29.27,ENE,72,0.0,3.0,92,0.00,,,0.00,weatherlink.com 1.10,2013-12-20 03:52:00,
2013-12-19 19:07:00,13.2,11.0,29.27,ESE,102,0.0,3.0,92,0.00,,,0.00,weatherlink.com 1.10,2013-12-20 04:07:00,
2013-12-19 19:22:00,13.0,11.0,29.28,SSW,193,2.0,2.0,92,0.00,,,0.00,weatherlink.com 1.10,2013-12-20 04:22:00,
2013-12-19 19:37:00,13.1,11.0,29.28,SSW,193,0.0,0.0,92,0.00,,,0.00,weatherlink.com 1.10,2013-12-20 04:37:00,
2013-12-19 19:52:00,13.2,11.0,29.27,SSW,192,0.0,1.0,92,0.00,,,0.00,weatherlink.com 1.10,2013-12-20 04:52:00,
2013-12-19 20:07:00,13.6,12.0,29.27,ESE,108,1.0,2.0,92,0.00,,,0.00,weatherlink.com 1.10,2013-12-20 05:07:00,
2013-12-19 20:22:00,13.8,12.0,29.26,SE,127,1.0,3.0,92,0.00,,,0.00,weatherlink.com 1.10,2013-12-20 05:22:00,
2013-12-19 20:37:00,13.6,12.0,29.26,East,98,1.0,2.0,92,0.00,,,0.00,weatherlink.com 1.10,2013-12-20 05:37:00,
2013-12-19 20:52:00,14.0,12.0,29.26,ENE,60,0.0,3.0,92,0.00,,,0.00,weatherlink.com 1.10,2013-12-20 05:52:00,
2013-12-19 21:07:00,14.1,12.0,29.26,East,89,0.0,2.0,92,0.00,,,0.00,weatherlink.com 1.10,2013-12-20 06:07:00,
2013-12-19 21:22:00,13.7,12.0,29.26,ESE,118,0.0,2.0,92,0.00,,,0.00,weatherlink.com 1.10,2013-12-20 06:22:00,
2013-12-19 21:37:00,13.4,12.0,29.25,ESE,116,0.0,2.0,92,0.00,,,0.00,weatherlink.com 1.10,2013-12-20 06:37:00,
2013-12-19 21:52:00,13.2,11.0,29.26,East,91,0.0,2.0,92,0.00,,,0.00,weatherlink.com 1.10,2013-12-20 06:52:00,
2013-12-19 22:07:00,13.1,11.0,29.26,East,90,0.0,2.0,92,0.00,,,0.00,weatherlink.com 1.10,2013-12-20 07:07:00,
2013-12-19 22:22:00,13.1,11.0,29.26,ESE,112,0.0,1.0,92,0.00,,,0.00,weatherlink.com 1.10,2013-12-20 07:22:00,
2013-12-19 22:37:00,13.2,11.0,29.26,ESE,116,0.0,1.0,92,0.00,,,0.00,weatherlink.com 1.10,2013-12-20 07:37:00,
2013-12-19 22:52:00,13.5,12.0,29.27,ESE,114,0.0,0.0,92,0.00,,,0.00,weatherlink.com 1.10,2013-12-20 07:52:00,
2013-12-19 23:07:00,13.9,12.0,29.28,ESE,115,0.0,0.0,92,0.00,,,0.00,weatherlink.com 1.10,2013-12-20 08:07:00,
2013-12-19 23:22:00,13.3,11.0,29.28,South,171,2.0,2.0,91,0.00,,,0.00,weatherlink.com 1.10,2013-12-20 08:22:00,
2013-12-19 23:37:00,13.4,12.0,29.28,South,171,0.0,0.0,92,0.00,,,0.00,weatherlink.com 1.10,2013-12-20 08:37:00,
2013-12-19 23:52:00,14.1,12.0,29.28,SE,138,0.0,1.0,92,0.00,,,0.00,weatherlink.com 1.10,2013-12-20 08:52:00,